Weather in St Petersburg

United States     27°46′38″N   82°38′19″W
temp.,
°C
wind,
m/s
gust,
m/s
humid.,
%
clouds,
%
prec.,
mm/h
press.,
hPa
HPBL,
m
24 may, tue
tue2423:00+28nne236999 1.2 1018194
02:00+28ese56715 1.6 1016341
05:00+26se79777 0.0 1016513
08:00+25se688181 0.0 1017449
11:00+28se566799 0.0 1017984
14:00+29sw5566100 0.0 1016881
17:00+28wsw6568100 0.1 1014383
20:00+28wsw2267100 0.1 1015379
25 may, wed
wed2523:00+28sw116888 0.7 101777
02:00+26se91163100 0.9 1017571
05:00+25se7970100 0.0 1016585
08:00+25ese7107393 0.0 1017610
11:00+28se6961100 0.0 10181328
14:00+29ssw5760100 0.1 10161052
17:00+29wsw4460100 0.0 1015467
20:00+23nw3488100 8.9 1017200
26 may, thu
thu2623:00+25ese4673100 5.4 1018345
02:00+26e6974100 5.9 1017703
05:00+25ese91277100 0.0 1016698
08:00+25se8117690 0.0 1018673
11:00+28se79615 0.0 10181030
14:00+28ssw886539 0.0 1017705
17:00+28ssw89695 0.0 1015635
20:00+27ssw797312 0.0 1015807
27 may, fri
fri2723:00+26ssw57775 1.8 1016407
02:00+26s577715 6.6 1016425
05:00+26s687912 5.9 1015652
08:00+26sse67787 6.9 1016766
11:00+27s67735 0.6 1016947
14:00+28ssw776865 1.8 1015809
17:00+28sw78715 0.1 1014785
20:00+27wsw777058 0.1 1013720
28 may, sat
sat2823:00+27wsw55730 0.0 1014696
02:00+26sw33760 1.1 1013395
05:00+26sw45750 0.5 1012557
08:00+26sw55720 0.5 1013851
11:00+27sw56680 0.2 1013958
14:00+27wsw67700 0.3 10131071
17:00+27wsw67680 0.0 10111176
20:00+27wsw78640 0.0 10121315